Theta_e
317 319 317 319 324 327 326 326 324 321 323 328 329 330 328 324 325 325 321 320 319 319 318 317 317 318 317 317 317 317 317 318 319 319 319 320 322 323 324 325 324 325 324 325 325 326 326 324 324 325 326 326 321 315 314 316 316 318 325 327 326 328 327 326 324 317 319 322 316 315 318 318 318 318 318 319 320 323 326 325 326 328 326 326 324 323 328 333
314 319 320 320 321 325 326 326 325 323 324 329 329 329 329 325 323 323 321 319 319 319 318 317 316 317 316 316 316 316 317 318 319 321 320 320 321 322 324 326 326 326 325 325 325 325 326 324 325 325 326 325 320 314 314 316 317 321 325 323 327 333 326 320 319 314 316 319 316 316 318 317 318 318 318 320 322 324 326 326 326 328 326 326 325 325 329 333
311 316 321 321 320 324 327 326 326 324 324 329 330 329 329 326 323 322 321 319 319 319 318 318 317 317 316 315 315 316 317 317 318 319 320 320 321 322 323 324 325 326 326 326 326 325 326 326 326 326 326 324 319 314 313 315 317 318 318 322 331 327 319 317 316 315 316 317 316 316 317 317 317 319 319 320 322 323 324 327 328 327 325 325 326 326 328 332
310 314 319 322 321 323 327 326 325 324 323 326 329 329 328 325 323 322 321 320 319 319 318 318 317 317 316 316 316 316 316 316 317 317 317 318 319 320 321 322 323 324 325 325 326 326 326 326 326 326 326 323 319 316 313 314 315 315 316 322 325 316 316 319 316 316 315 315 316 315 316 316 316 318 318 319 322 322 320 322 324 324 322 324 327 327 327 331
311 313 317 321 321 322 326 326 325 324 323 324 327 330 326 322 322 321 321 320 319 319 318 318 317 317 316 316 316 316 316 318 319 317 317 316 317 318 319 321 321 321 323 323 325 326 326 326 326 326 326 323 322 320 313 312 313 314 316 318 317 313 315 317 315 315 315 315 316 315 316 317 316 317 317 319 322 321 319 319 318 318 319 321 325 326 326 329
312 312 315 320 321 321 325 326 326 324 324 324 326 329 324 318 320 321 321 320 319 320 318 317 317 316 316 315 315 315 316 320 322 320 319 317 316 317 318 320 321 321 321 322 324 325 327 326 326 326 323 322 322 322 316 311 312 315 316 314 314 314 314 315 315 315 314 315 315 314 317 317 316 316 317 318 320 319 318 319 318 317 317 318 321 324 325 326
313 312 313 318 322 322 324 326 326 325 324 324 325 328 322 316 318 319 320 320 319 319 318 317 316 316 315 315 315 316 317 320 321 321 321 318 317 316 317 319 321 323 323 324 325 326 327 325 326 325 322 324 321 319 317 313 311 314 315 313 313 313 313 316 315 315 314 315 316 316 317 316 316 317 316 317 319 318 318 318 319 318 317 318 321 322 321 321
312 313 311 315 321 322 323 325 326 325 324 324 323 325 322 317 317 318 319 319 318 318 317 317 317 316 315 315 317 318 318 320 320 320 320 319 319 318 317 317 319 323 323 325 326 326 326 326 326 324 324 326 322 318 317 315 313 312 313 311 310 311 312 314 315 314 314 315 315 315 316 316 315 315 314 316 318 318 317 318 319 319 319 319 321 321 320 319
312 313 312 313 319 322 322 324 326 326 324 324 324 324 324 320 317 318 318 319 318 318 317 317 317 316 316 316 317 318 318 319 320 320 320 320 319 319 319 318 319 322 324 326 327 326 326 326 325 324 325 324 322 319 316 319 317 310 310 310 309 310 311 313 313 314 314 315 315 315 315 315 314 315 315 317 318 317 317 317 318 319 320 320 321 320 320 320
312 312 312 312 317 321 322 324 326 325 325 326 326 324 325 323 319 317 317 317 318 318 318 317 317 316 316 317 317 318 318 318 319 320 320 320 320 320 321 321 322 325 327 327 327 327 326 326 325 325 325 322 321 318 314 320 320 310 310 310 309 311 311 312 313 313 314 314 315 316 315 314 313 314 316 317 317 317 316 316 317 318 319 320 321 321 321 320
312 312 312 311 315 320 322 324 325 324 325 327 327 326 327 325 320 318 316 317 318 317 317 317 316 317 316 317 317 318 319 319 319 319 320 321 320 321 323 324 325 327 328 326 326 326 326 327 326 325 324 321 321 318 315 317 316 312 312 311 310 311 311 312 312 313 314 314 314 315 314 313 313 314 316 316 316 316 316 316 316 317 319 319 320 321 321 321
311 312 313 311 313 319 322 323 324 324 324 325 327 327 326 323 320 318 317 317 317 317 317 317 316 317 317 317 317 318 321 321 319 319 320 321 320 321 323 324 324 326 327 326 325 325 325 326 326 325 324 322 321 321 318 315 314 314 312 311 311 311 312 313 312 313 314 314 314 314 315 315 314 315 315 315 316 316 315 316 316 317 318 319 320 321 321 321
310 311 312 312 312 318 322 323 325 325 324 326 326 326 325 322 320 319 318 318 318 317 318 318 318 318 318 319 318 319 322 322 320 320 320 321 321 321 322 322 323 325 326 326 325 325 325 324 324 324 322 321 321 321 320 315 314 315 311 310 311 313 316 314 311 313 314 314 314 314 318 320 317 315 315 315 315 315 316 317 317 317 318 319 321 321 321 321
310 310 312 312 311 316 321 323 325 325 324 326 326 326 325 322 321 320 319 319 319 319 320 320 320 320 320 320 320 320 321 322 321 321 321 322 322 322 322 322 323 324 324 324 324 324 324 323 322 322 320 319 319 318 320 319 315 314 311 311 313 314 320 318 311 312 314 313 313 314 316 319 317 314 314 315 314 315 317 318 317 318 319 319 320 321 321 320
309 310 311 312 311 315 320 321 323 325 324 325 326 326 324 323 322 320 320 320 319 320 321 321 321 321 321 321 320 320 321 321 321 321 321 322 322 323 324 324 323 322 320 320 321 323 322 321 321 319 316 317 318 320 325 326 320 315 315 316 315 314 320 321 311 311 315 313 312 313 316 317 315 313 313 314 313 315 317 317 317 317 318 319 320 320 320 319
309 310 311 311 310 314 320 321 322 325 324 325 325 325 324 323 322 320 320 320 319 320 322 322 322 322 322 322 320 321 321 321 322 321 321 322 322 323 324 323 320 318 316 317 318 319 318 318 318 316 314 317 320 322 326 326 320 316 315 315 316 314 317 318 312 310 312 312 312 313 316 318 315 312 312 313 312 315 318 318 316 316 317 318 318 319 319 319
309 309 310 311 310 313 319 321 322 325 324 324 325 324 324 323 322 322 321 321 320 320 322 323 322 322 322 320 320 321 320 321 321 321 321 321 322 323 324 321 316 315 315 315 316 316 316 315 315 315 316 318 319 321 324 323 321 318 313 312 315 315 314 316 315 312 310 312 314 313 314 317 315 311 311 312 312 314 317 318 317 317 317 317 317 318 318 318
308 309 309 310 310 312 317 321 322 324 324 323 324 324 323 323 323 322 322 322 321 321 322 322 322 324 322 318 319 322 321 321 321 321 321 321 322 324 324 319 314 314 314 313 313 313 314 314 314 317 317 317 317 320 325 323 321 318 313 312 313 314 314 315 316 313 311 313 314 315 314 314 315 312 311 311 311 313 316 316 317 317 317 317 317 317 317 318
309 308 309 310 310 311 316 321 322 322 324 324 324 324 323 323 324 322 323 323 321 320 321 322 322 324 323 319 319 322 322 321 320 320 320 320 322 322 320 316 314 314 313 313 314 312 313 314 315 318 318 316 316 320 322 319 317 315 313 313 313 315 314 314 317 314 311 314 314 315 315 313 314 313 311 311 311 312 314 314 315 316 317 318 318 317 317 317
309 309 308 310 311 310 315 321 322 322 324 325 325 325 324 322 321 318 319 322 320 319 321 322 322 319 319 319 320 322 322 320 319 319 319 320 321 318 314 314 314 314 314 315 315 312 313 315 316 318 317 316 316 319 318 314 313 312 311 311 311 313 313 313 317 314 309 313 315 314 314 314 314 314 312 310 311 310 311 311 312 314 315 317 318 317 316 316
310 309 308 309 310 310 315 321 322 323 325 326 325 325 323 321 319 317 317 320 320 320 321 323 321 317 319 320 320 322 322 319 318 318 319 320 319 315 313 314 313 314 314 314 314 313 313 316 316 317 316 315 315 316 315 314 313 311 311 311 310 311 311 311 314 314 310 312 315 314 313 313 312 313 311 308 310 310 310 311 311 312 313 315 317 316 315 315
310 309 308 310 310 311 316 320 321 324 326 325 325 323 321 321 321 320 320 320 319 319 321 322 319 316 318 320 320 323 322 319 318 318 319 317 316 315 313 313 314 313 313 312 313 313 314 315 316 315 314 314 314 314 314 314 314 312 312 311 311 311 312 312 313 315 312 311 316 315 313 313 312 312 310 307 309 311 311 312 312 312 312 313 315 315 315 315
310 308 308 310 310 311 317 319 320 324 325 326 325 322 321 320 321 321 321 320 317 317 319 320 317 315 317 318 320 322 321 318 317 318 318 315 314 315 313 313 314 313 312 313 314 314 315 315 315 314 313 314 315 314 313 313 313 314 314 311 311 312 313 314 313 313 312 311 315 315 314 315 313 313 312 309 309 311 313 313 313 312 312 313 315 315 315 314
309 307 308 310 309 311 317 320 320 324 325 325 324 322 322 320 320 321 319 317 314 315 319 319 315 316 318 318 320 322 320 318 316 317 317 314 313 314 314 313 314 313 312 313 314 314 316 315 313 313 314 315 315 314 313 313 313 314 314 311 311 311 312 314 313 313 312 312 312 313 315 316 315 315 314 312 310 309 311 311 311 312 313 314 314 313 314 314
310 308 309 309 309 312 318 321 322 323 324 323 323 322 322 320 320 321 318 316 314 313 317 317 313 316 317 317 320 320 318 316 315 316 316 314 313 313 313 313 313 313 313 313 313 315 315 313 313 314 315 315 315 315 314 313 314 314 313 312 310 310 311 312 314 313 313 315 314 313 315 319 322 320 315 314 312 310 311 309 310 312 313 313 313 314 314 314
311 310 309 309 310 314 320 323 322 322 322 322 323 322 322 321 320 319 318 318 316 313 317 318 314 315 316 315 316 317 318 315 314 316 316 314 313 313 313 312 312 313 312 312 313 314 314 312 313 314 314 315 316 315 315 313 313 313 314 313 311 311 312 313 313 313 316 319 315 312 315 320 323 321 318 315 313 313 312 309 309 311 312 312 313 314 314 315
313 310 309 309 311 317 322 323 322 322 322 322 322 322 321 320 319 318 318 319 318 315 316 316 314 315 315 314 314 317 319 315 312 314 315 314 313 313 313 312 311 312 311 312 314 314 313 312 313 314 314 314 315 315 315 313 312 313 315 315 313 313 314 314 313 315 317 317 314 311 313 317 317 317 318 314 312 314 312 310 309 309 311 313 313 315 315 315
311 309 309 310 314 318 320 321 323 323 322 322 322 322 320 319 319 317 318 320 319 315 314 312 312 314 314 313 314 315 315 314 313 313 312 313 313 311 312 311 311 312 310 313 316 314 312 313 314 314 314 314 314 315 315 313 312 314 315 316 316 316 316 315 314 315 315 314 316 316 313 314 318 321 320 313 312 315 314 313 311 308 311 313 314 316 316 315
310 309 310 312 316 318 318 320 323 322 321 321 321 321 319 319 318 316 317 320 317 314 314 312 312 313 313 313 313 311 311 313 314 313 310 311 312 310 311 310 310 312 311 312 315 312 310 311 312 312 314 314 313 314 314 312 312 313 316 318 319 322 321 316 315 314 312 313 316 318 314 313 320 326 321 313 313 315 315 315 311 308 311 313 313 315 316 316
310 311 313 315 318 320 320 321 322 321 320 320 320 319 318 317 317 317 318 318 315 314 313 311 312 312 312 313 312 311 312 312 311 311 310 310 310 309 310 310 310 312 312 310 312 312 309 309 310 311 312 312 311 312 312 311 311 311 316 317 318 324 323 319 320 316 312 314 316 319 317 312 317 324 319 314 315 316 315 314 312 309 310 312 312 314 314 315
312 315 316 318 320 321 321 320 320 320 319 319 319 318 317 315 315 318 318 316 316 314 311 311 312 312 312 313 312 311 311 310 309 310 310 309 309 308 309 310 310 311 312 311 311 313 310 309 310 310 310 310 310 310 311 311 311 312 317 317 316 322 321 319 324 318 313 317 316 317 316 312 314 319 318 315 316 315 314 314 315 311 309 312 312 313 313 313
315 317 319 320 320 320 320 320 320 319 317 318 318 316 316 315 315 317 316 316 317 313 311 312 312 312 312 313 312 310 310 309 309 310 310 310 310 308 309 311 310 312 312 311 312 313 312 313 311 309 309 310 310 311 311 312 313 313 316 317 316 320 320 319 320 317 315 316 312 312 313 312 313 315 315 315 313 313 311 310 312 310 310 313 313 313 313 314
317 318 320 320 319 320 320 319 319 318 317 318 318 315 316 317 316 316 315 315 316 313 311 312 311 312 313 313 312 310 310 310 309 310 310 310 310 309 311 312 311 314 315 312 312 313 314 315 313 310 310 310 310 311 311 313 313 312 313 315 316 317 318 317 317 316 317 317 312 310 311 314 315 314 316 315 312 312 309 307 309 310 310 312 313 313 313 314
318 319 320 321 319 319 319 319 318 318 318 317 316 315 316 318 316 315 314 313 313 312 311 311 311 312 313 313 312 310 311 311 309 311 311 310 311 309 311 312 310 316 316 312 312 313 314 315 314 313 311 311 311 311 312 315 313 312 314 315 316 318 319 319 318 318 319 319 314 309 312 319 320 316 316 311 308 310 310 309 310 310 311 312 312 313 313 313
319 319 320 320 319 319 318 318 318 318 318 317 315 315 317 319 316 314 313 311 311 312 311 311 311 312 313 312 311 310 311 311 310 311 311 311 311 310 310 310 309 314 315 311 312 312 312 314 314 311 309 311 313 311 312 315 314 314 316 315 315 318 319 318 318 317 316 317 315 310 314 321 319 315 312 308 307 309 309 309 310 310 311 311 311 313 313 313
319 319 319 318 318 318 318 318 318 317 317 315 315 315 316 317 316 314 313 311 312 312 311 311 311 313 312 311 311 311 311 311 310 311 312 311 311 311 311 310 309 311 312 312 313 313 312 313 312 311 310 310 311 312 311 313 315 315 314 314 314 315 315 315 315 314 311 313 315 313 314 318 316 314 315 315 313 311 310 309 308 309 311 311 312 312 313 313
319 319 318 317 317 317 318 318 317 317 316 314 315 316 315 314 314 313 312 311 312 311 312 313 312 313 312 311 311 312 311 311 311 311 312 311 312 312 311 311 309 309 311 312 313 315 316 315 312 313 313 309 307 310 309 309 313 315 314 314 313 312 316 318 315 314 312 312 316 316 314 316 317 316 319 321 316 314 314 311 307 308 311 312 312 312 313 314
317 316 317 317 316 317 317 317 317 316 315 315 315 315 313 312 311 311 311 311 312 312 313 314 313 313 313 312 312 311 312 312 311 312 312 311 313 313 310 311 309 308 309 310 312 314 317 317 312 311 313 311 309 311 311 309 309 312 313 313 314 314 316 316 314 315 314 311 317 319 314 313 316 318 319 317 315 317 316 314 313 310 310 312 313 313 313 314
316 314 315 316 316 316 316 316 316 315 314 315 315 313 313 313 310 309 311 311 311 313 314 314 314 314 313 312 312 311 312 313 311 312 312 312 314 313 310 311 310 308 307 309 313 314 315 320 316 310 310 311 311 313 315 313 310 310 311 311 314 316 315 315 315 317 316 312 316 319 316 316 318 319 320 314 313 316 313 314 316 310 308 312 313 313 313 314
316 314 313 315 316 316 316 315 314 314 314 315 315 312 313 312 309 309 310 312 312 313 314 314 313 314 313 312 312 311 312 313 310 311 313 312 312 310 309 311 310 308 307 308 313 313 312 317 317 311 310 311 314 315 316 316 313 312 314 312 312 313 314 316 315 317 318 315 316 316 316 324 325 318 316 314 313 315 312 313 314 308 308 311 311 312 314 314
315 313 312 314 316 315 315 314 313 314 315 316 315 313 312 310 309 310 311 312 313 312 313 314 313 313 313 312 312 311 311 312 310 311 312 311 311 310 310 309 309 309 308 308 313 314 312 315 318 315 312 314 319 317 314 316 314 313 315 314 312 312 314 315 314 315 316 315 318 315 312 321 328 318 314 314 313 311 309 309 309 307 309 310 310 311 313 314
314 313 312 314 315 315 315 314 313 314 315 315 313 312 312 309 309 310 311 312 313 312 312 313 313 313 312 312 312 311 311 311 310 311 311 310 311 312 309 308 308 308 310 310 313 313 313 318 323 319 316 317 318 312 306 310 314 313 314 313 313 314 314 314 317 318 315 313 316 315 311 315 325 325 318 311 308 306 305 305 305 307 310 310 310 310 311 313
313 313 312 314 314 314 314 314 313 313 313 313 311 310 310 309 309 311 312 312 312 312 313 313 313 313 313 312 312 311 311 311 310 311 311 310 311 311 309 308 309 309 310 311 312 311 312 316 320 319 319 319 318 312 306 308 313 313 313 312 313 313 313 318 324 321 317 316 314 312 312 313 320 326 313 302 301 303 305 307 306 308 311 311 310 310 310 312
312 311 312 314 314 314 314 314 313 313 312 312 311 311 310 308 310 311 312 313 311 312 314 313 313 313 313 312 312 312 312 313 311 311 312 312 310 308 307 308 310 310 310 311 312 311 311 315 316 317 318 317 317 315 311 311 313 315 316 316 315 314 313 317 320 315 314 319 317 313 314 313 318 322 311 304 307 307 305 307 307 308 311 312 311 311 310 311
312 312 312 313 313 313 313 312 313 312 312 312 312 312 310 308 309 310 312 312 311 311 313 312 312 312 312 312 312 311 312 314 312 311 312 312 310 307 306 308 310 310 310 311 310 310 314 317 315 314 315 314 314 315 314 314 314 316 319 319 316 315 313 314 315 312 312 317 317 313 313 314 317 319 313 311 314 313 308 308 308 309 310 311 311 311 310 311
312 312 311 312 312 313 311 311 312 313 313 312 311 312 311 309 309 309 310 312 310 311 312 311 311 311 311 312 312 311 312 313 313 311 310 312 313 310 306 307 309 309 309 310 309 311 319 319 313 312 313 313 314 316 316 316 314 314 316 317 315 313 313 313 313 314 315 316 315 313 312 313 315 317 316 316 317 317 313 308 308 310 309 310 311 311 311 311
312 311 311 311 312 313 311 312 313 313 313 312 311 311 311 310 310 309 310 312 310 310 311 311 311 312 311 312 312 311 311 313 313 311 310 312 313 309 306 306 307 308 310 310 309 313 320 317 312 313 312 313 319 321 317 315 314 314 314 315 315 314 314 314 313 314 316 316 313 314 314 313 313 315 319 319 318 318 313 307 307 310 310 310 311 311 311 311
311 311 310 311 312 313 312 312 313 313 312 311 311 312 311 310 310 309 310 311 310 309 311 311 311 312 312 312 312 312 311 311 311 311 311 313 312 309 308 307 306 307 310 310 309 312 316 314 312 313 312 313 320 319 315 315 314 314 314 314 314 315 315 314 313 313 315 314 312 316 318 314 312 314 316 317 316 313 310 308 308 309 310 312 311 310 311 311
310 310 310 310 311 312 312 312 312 313 312 311 312 313 312 310 310 311 313 313 310 310 311 311 311 311 311 312 312 311 311 311 311 310 310 311 311 311 311 310 307 306 308 311 310 309 313 316 314 313 311 312 316 315 314 316 315 313 314 313 313 314 314 313 312 312 313 313 312 315 317 313 313 314 313 313 312 310 308 309 309 310 311 312 310 309 310 310
310 310 310 310 310 311 311 311 312 313 312 311 312 313 311 310 310 313 314 312 310 311 311 311 311 311 311 312 312 311 311 312 312 310 310 311 311 311 311 311 310 308 308 311 311 308 310 316 314 312 312 313 314 314 313 314 314 314 314 314 313 313 313 312 312 312 312 312 312 312 313 312 311 311 310 310 310 309 308 309 310 311 312 311 310 309 309 310
309 310 310 310 310 311 312 311 312 313 312 311 311 312 311 310 310 313 313 310 310 312 312 311 311 310 310 311 312 312 310 311 312 310 309 311 311 310 311 310 309 310 310 312 312 310 311 313 311 313 315 313 312 314 312 310 311 313 314 314 312 312 312 312 312 313 312 312 312 312 312 312 311 309 308 308 308 307 308 309 310 311 311 311 311 310 310 310
309 309 310 310 310 311 311 311 312 312 312 311 310 312 312 311 311 313 313 310 309 310 310 310 310 310 310 311 311 311 310 310 310 309 309 310 310 309 310 309 308 310 312 312 314 314 315 314 313 314 316 312 310 312 314 311 311 313 314 313 311 311 311 311 312 312 312 312 313 312 312 314 314 311 310 311 310 308 308 309 310 311 311 311 311 311 311 311
Wind_Speed
38 43 48 43 38 42 43 42 43 44 45 46 44 42 40 39 41 42 42 42 40 39 38 37 36 33 31 29 26 25 23 22 21 23 25 25 24 22 21 20 19 19 21 23 23 22 21 18 16 16 15 10 7 9 8 4 0 1 2 3 1 3 4 4 6 7 3 3 7 12 18 13 7 12 12 8 11 15 18 14 13 21 14 9 8 8 26 34
39 40 42 44 42 41 43 43 44 44 46 50 48 44 42 40 41 43 44 44 41 39 39 38 36 35 33 30 27 25 23 22 21 22 23 23 24 23 21 19 16 16 18 20 21 21 22 21 19 18 14 9 5 7 8 5 1 1 3 2 3 5 4 4 7 8 4 4 9 14 18 16 14 18 16 8 9 13 12 10 13 18 16 13 12 16 30 34
40 40 38 42 44 40 42 44 43 45 47 51 51 47 44 42 42 44 45 45 43 40 39 38 37 35 32 30 28 25 23 21 21 24 24 23 24 24 23 22 19 17 16 16 17 17 17 18 18 17 14 9 5 5 8 4 2 0 3 1 5 5 5 6 6 9 9 6 8 14 16 15 17 21 18 10 9 10 10 12 14 17 18 17 16 22 32 34
40 41 38 39 43 39 40 44 43 45 46 49 52 50 48 46 44 45 46 46 44 41 39 38 36 34 32 30 27 25 21 14 19 29 29 26 26 24 23 23 23 22 19 16 14 14 12 13 16 16 11 7 6 5 7 5 4 2 2 3 4 1 3 8 9 10 10 8 9 14 12 11 17 21 17 13 9 6 15 22 21 21 22 20 21 26 33 35
39 41 40 39 42 41 41 43 43 46 47 47 50 51 52 50 46 46 47 47 45 42 40 38 36 34 32 29 27 24 18 5 14 28 31 30 29 26 24 22 23 24 24 21 17 15 13 14 17 17 11 5 5 3 3 8 8 3 3 3 7 4 3 10 9 7 7 7 9 12 11 12 18 17 19 20 11 10 22 28 24 22 22 20 22 28 33 35
40 40 42 40 41 43 42 43 44 45 46 47 49 53 54 51 48 47 47 47 45 43 41 38 36 34 31 29 25 23 19 5 5 15 27 33 32 29 26 22 23 23 23 23 21 18 16 17 16 15 11 4 4 5 1 7 9 1 4 6 11 9 6 13 12 9 7 7 13 15 14 16 17 12 19 25 20 18 22 26 24 20 19 19 21 27 33 35
41 40 42 42 41 42 43 44 45 45 46 47 47 53 55 51 51 50 48 47 45 43 41 38 35 33 30 26 22 21 24 12 4 2 17 29 32 31 29 25 23 21 20 21 22 23 19 20 19 15 11 4 5 7 4 7 7 3 2 7 14 15 11 17 17 14 9 10 15 16 13 16 18 9 13 25 28 19 13 19 23 19 19 20 22 27 30 31
43 40 42 44 42 42 44 43 45 46 47 46 45 49 53 52 52 51 49 47 45 42 40 37 33 32 29 26 24 22 25 19 2 4 9 20 27 29 29 29 26 22 21 20 21 24 22 22 23 17 9 2 7 8 3 7 6 4 1 10 17 20 20 21 18 15 10 10 12 13 13 15 17 7 8 24 29 19 11 13 20 20 20 22 25 27 28 30
44 42 42 45 44 42 43 42 44 47 45 45 45 48 52 52 52 51 50 47 44 41 39 36 33 32 28 28 27 19 23 26 11 2 6 14 21 23 26 29 29 24 22 21 19 22 23 24 26 20 10 5 9 7 4 3 1 3 6 14 18 23 27 22 16 11 7 9 10 11 8 9 13 5 8 23 25 19 13 13 19 22 22 24 26 27 28 30
45 44 43 45 45 44 44 43 44 47 46 46 48 50 51 52 52 51 48 45 42 40 38 35 33 33 30 30 25 12 19 28 18 8 6 10 19 21 22 24 26 24 21 22 19 20 23 23 26 22 11 7 9 6 6 6 4 5 15 19 20 24 23 16 12 7 5 7 11 11 4 4 9 4 7 17 20 21 18 15 19 23 24 25 26 28 28 28
47 46 44 46 46 45 45 43 43 47 48 48 50 53 53 53 53 50 46 44 42 41 38 36 35 34 32 31 25 13 15 25 23 16 9 10 18 23 24 23 22 21 20 21 19 18 19 17 21 20 8 7 9 5 5 5 5 5 17 20 20 20 16 14 10 7 4 3 10 10 2 1 3 3 11 12 16 22 21 18 20 24 25 25 26 28 28 28
49 48 45 46 47 47 46 43 44 46 46 47 50 53 53 53 53 50 46 43 42 41 38 36 35 35 33 30 28 20 13 18 23 20 14 12 19 25 25 21 16 16 17 20 19 18 17 14 20 19 8 9 10 3 5 7 4 5 12 12 15 14 9 13 10 7 6 2 7 8 1 3 2 10 17 11 15 21 20 20 21 24 27 27 28 28 29 28
52 50 47 47 49 49 48 44 45 46 47 48 49 50 50 51 53 50 47 44 42 40 38 36 35 35 32 24 25 24 13 13 19 17 15 16 21 25 24 20 16 15 17 19 18 18 18 15 19 19 11 12 10 4 4 6 3 3 5 3 7 9 6 9 7 6 6 2 7 10 2 6 7 19 20 11 16 21 20 22 23 25 28 29 30 30 29 29
54 54 50 48 50 51 49 47 46 47 49 49 49 48 48 50 51 51 49 45 42 39 37 36 35 34 30 19 21 26 16 13 18 14 15 22 26 26 23 21 18 17 17 16 16 17 18 16 19 18 12 11 11 7 3 1 1 2 4 2 2 3 5 6 3 6 6 3 8 9 3 7 8 18 20 15 18 22 22 23 24 26 28 30 31 32 31 30
56 56 53 50 51 51 49 49 47 48 49 48 49 49 50 52 51 52 51 46 43 40 38 38 36 33 26 14 16 24 17 15 20 15 15 24 29 28 25 23 19 16 15 13 14 15 16 19 19 16 10 9 11 8 3 3 2 3 1 4 2 2 5 7 3 8 6 3 7 8 3 7 8 14 17 18 20 22 25 24 25 27 27 30 32 33 32 31
59 58 56 52 52 51 52 52 48 49 49 48 49 50 51 50 48 49 49 46 44 41 41 39 39 35 21 10 14 21 19 17 22 18 16 23 27 27 26 23 19 16 15 14 13 14 18 19 16 13 11 8 8 6 4 2 1 1 3 3 4 3 4 5 4 7 5 2 5 5 3 4 6 9 10 16 22 23 24 25 26 28 28 30 32 33 33 32
62 61 58 54 53 54 57 54 50 52 51 48 49 52 51 47 47 46 46 46 42 42 44 42 43 33 13 9 16 23 24 21 23 22 18 22 24 25 26 24 21 18 18 17 15 17 19 17 12 8 6 4 5 6 5 4 5 3 3 2 5 4 3 4 4 5 4 2 4 5 4 7 7 6 4 11 22 24 25 27 28 29 29 30 31 33 33 33
64 64 60 57 55 57 59 54 51 54 53 50 50 54 50 45 47 47 47 47 43 43 40 37 40 23 7 16 22 26 30 24 24 25 22 23 23 25 29 27 24 22 21 18 15 18 15 10 7 3 2 3 6 9 7 6 6 6 5 2 4 4 4 5 4 4 6 2 4 6 6 12 12 11 8 8 17 24 28 28 27 28 30 31 32 33 33 34
66 65 63 58 57 60 58 54 53 54 55 53 54 56 49 47 49 49 53 52 43 30 19 30 36 11 4 24 27 28 32 25 23 26 26 25 24 27 28 26 27 27 22 13 9 13 11 5 4 4 5 7 8 9 6 6 9 8 6 3 3 4 5 5 5 5 6 4 5 8 8 12 13 14 12 8 14 22 24 22 22 26 29 30 32 33 33 35
66 66 66 60 60 61 57 57 56 55 59 60 65 63 50 43 29 25 43 51 43 23 13 39 40 6 11 30 30 30 31 24 24 29 27 27 29 28 27 26 25 21 15 9 6 11 10 5 6 7 7 8 8 8 5 8 8 5 3 2 4 4 5 5 4 5 2 4 6 8 9 13 13 13 11 8 11 16 19 20 23 27 28 30 33 34 34 34
68 68 67 62 62 61 59 61 57 58 62 63 71 62 51 47 22 17 35 35 38 27 19 43 36 5 15 32 34 36 33 22 24 31 28 30 33 26 23 24 16 8 8 10 9 8 8 6 7 6 5 7 8 7 6 5 3 2 2 2 5 4 6 6 4 4 2 3 5 4 7 12 13 12 9 8 9 13 21 24 27 30 30 32 33 34 35 33
70 70 68 65 64 61 61 61 58 62 64 65 65 47 47 57 41 46 46 22 25 25 22 38 26 9 20 30 33 39 36 21 20 32 31 34 36 24 19 17 10 4 6 9 8 5 6 6 5 5 7 8 7 7 8 6 4 2 2 2 4 3 4 7 4 2 0 3 4 1 5 10 12 12 10 9 11 15 23 28 31 31 29 32 34 35 36 35
71 72 69 66 66 64 63 62 60 64 65 67 62 41 43 46 42 58 47 19 13 11 21 31 17 19 27 27 32 37 33 21 20 33 34 35 33 25 21 14 8 7 7 7 7 7 5 5 7 10 10 10 7 8 8 6 4 3 2 2 4 3 1 4 3 2 1 1 1 1 3 7 8 9 8 12 18 20 23 26 29 29 28 32 35 35 36 36
72 73 70 68 68 67 64 61 61 65 66 67 62 51 45 34 38 58 38 13 6 6 23 27 15 25 26 24 32 33 27 20 21 32 35 34 28 21 20 15 11 8 8 10 10 8 3 3 13 13 9 11 10 9 10 7 5 5 6 5 4 4 3 4 3 4 3 2 1 2 3 6 6 7 8 10 15 19 23 23 23 27 30 34 35 34 35 35
76 74 71 71 71 69 65 62 64 69 66 61 57 56 50 31 39 58 32 9 3 5 21 23 14 21 23 24 32 30 24 16 19 31 36 34 28 19 15 15 12 7 10 11 9 7 3 6 17 11 6 10 10 9 11 8 5 6 8 8 7 6 5 6 5 3 3 4 2 1 2 6 5 5 8 8 6 11 19 19 22 29 30 33 34 35 36 35
79 75 73 74 73 71 66 62 66 69 62 55 54 56 57 42 41 48 24 5 1 5 15 21 15 16 21 23 29 30 19 9 16 32 35 32 29 22 14 10 7 6 11 10 4 3 3 8 13 9 9 10 8 9 11 10 7 5 6 8 8 5 5 7 5 1 2 5 4 1 5 6 6 5 8 7 5 9 12 12 19 28 29 32 35 37 38 37
79 75 76 77 74 74 69 60 63 66 58 53 55 56 56 50 42 35 13 2 5 6 9 15 14 18 21 23 30 24 10 9 17 28 36 32 28 21 12 8 5 5 9 7 2 2 5 9 8 8 10 9 9 9 9 11 7 2 4 8 6 3 4 6 4 5 4 3 4 2 3 4 5 7 6 3 4 9 9 9 14 23 28 32 37 41 42 41
77 77 79 78 75 77 73 62 65 70 64 60 61 59 53 51 47 29 7 2 7 8 9 10 12 21 26 26 27 14 11 22 18 20 34 32 25 17 8 8 7 8 12 9 5 4 7 11 11 10 9 8 8 6 9 12 6 3 4 5 3 2 1 2 2 5 3 2 5 4 2 3 6 6 4 2 4 9 10 10 12 20 29 34 39 43 45 44
78 79 79 78 74 76 72 63 67 71 68 67 64 58 55 56 45 18 1 4 4 6 12 13 12 22 27 23 17 12 19 24 12 19 33 26 20 12 5 11 10 9 12 8 5 3 4 13 18 14 8 8 7 5 10 13 6 3 4 4 4 4 3 2 2 3 2 2 8 6 4 4 5 5 3 2 3 7 9 8 10 19 29 33 37 42 44 44
78 78 77 77 75 75 66 56 61 63 63 67 63 59 59 49 29 10 4 5 3 5 14 15 13 23 27 17 8 9 14 11 10 23 26 17 17 11 7 14 11 8 7 5 3 3 2 8 17 12 7 9 8 9 13 14 9 5 5 5 5 3 4 4 1 1 1 6 8 7 4 4 5 6 4 4 5 7 8 8 9 16 23 27 31 35 39 41
77 77 77 77 77 76 63 50 53 56 59 65 62 62 53 26 7 5 7 5 4 6 12 12 12 20 25 16 9 10 8 6 13 22 15 9 11 9 10 11 7 6 4 4 4 4 4 4 7 5 10 13 8 8 12 13 12 6 3 4 4 0 2 3 2 1 4 7 5 4 3 4 6 5 4 6 6 5 7 8 8 11 16 19 19 22 26 30
76 77 77 78 77 75 64 55 58 58 60 66 66 58 34 8 1 4 5 7 6 7 11 13 14 18 22 20 13 11 8 6 12 18 14 9 6 7 8 7 6 6 4 7 3 2 0 2 2 2 10 14 9 5 6 7 9 6 3 5 4 2 0 2 3 1 5 6 3 1 2 3 7 6 7 10 9 9 11 13 14 14 17 21 18 17 18 19
76 76 76 78 75 70 64 62 66 65 64 67 62 40 14 5 6 4 6 8 6 8 13 16 18 18 21 19 12 12 10 8 13 16 13 10 7 6 6 4 8 6 3 7 5 2 3 4 3 3 5 11 11 7 5 5 7 7 5 5 5 4 3 6 5 2 5 5 3 1 1 4 4 5 10 13 14 16 15 17 20 20 22 26 25 22 20 17
76 76 77 78 72 66 62 61 67 68 68 66 46 20 9 9 4 4 7 6 5 9 11 13 17 17 16 13 10 11 8 5 12 15 11 9 8 8 7 7 9 6 5 6 5 6 6 4 5 4 3 9 10 7 7 6 6 8 5 4 5 5 4 5 4 3 4 4 3 2 1 4 3 3 9 12 14 18 17 17 20 22 24 25 26 25 21 18
74 77 76 71 65 62 61 64 68 71 71 56 25 7 11 9 3 5 8 6 7 10 11 15 18 17 12 8 10 10 4 4 10 12 11 11 10 10 9 9 9 6 7 7 4 5 7 4 3 1 1 8 9 7 8 9 6 5 3 4 5 5 4 2 2 3 2 2 4 2 3 5 4 6 9 8 10 14 18 19 19 20 21 20 22 23 22 19
73 77 74 63 59 59 63 69 69 72 70 41 11 7 9 4 5 8 9 11 14 17 19 17 14 14 10 5 8 11 4 5 10 8 8 10 9 11 10 7 9 7 7 8 2 3 6 3 4 3 2 2 6 6 7 7 6 3 3 5 4 3 5 2 2 1 2 3 4 1 4 5 4 7 9 6 7 10 12 14 15 17 17 16 20 21 21 20
63 66 70 61 57 62 69 73 70 72 62 27 8 11 6 2 7 8 8 13 17 21 22 16 11 14 14 8 11 15 8 7 11 9 8 8 7 12 12 8 11 12 9 8 2 2 6 1 3 2 2 2 1 4 2 0 3 5 7 7 2 2 3 2 2 1 1 6 5 1 3 5 3 5 7 7 7 9 9 9 11 14 14 16 20 20 19 18
46 48 61 59 58 67 74 75 73 69 46 17 10 10 3 4 7 9 12 14 17 20 17 13 12 13 16 15 14 18 14 11 12 11 10 9 6 11 16 10 10 15 13 11 5 2 4 2 3 1 2 2 2 3 2 3 2 4 6 7 5 3 3 2 3 4 4 5 5 3 3 4 4 4 6 8 7 8 10 8 7 10 14 17 20 19 18 18
42 31 38 54 66 72 75 76 72 57 27 11 12 6 2 4 4 13 24 22 18 19 14 12 12 10 14 16 14 16 14 12 14 10 8 9 5 8 18 12 7 14 17 13 7 2 4 4 2 2 1 1 2 2 5 2 3 4 3 4 3 2 4 3 3 3 3 3 3 4 4 4 6 6 6 9 11 10 10 7 6 9 14 18 20 19 17 18
45 20 17 53 76 72 75 73 58 36 14 10 11 4 3 4 3 17 34 29 17 12 12 14 13 11 12 13 14 14 9 8 14 10 5 8 5 4 12 13 7 11 14 11 7 3 3 4 2 2 2 0 1 3 6 7 3 2 3 4 3 2 1 1 2 2 2 3 3 3 4 5 5 5 9 13 13 9 6 4 7 12 16 18 20 20 19 18
41 15 11 54 76 73 73 54 28 15 8 9 9 3 3 6 7 18 33 34 17 3 7 14 14 13 13 13 14 13 8 7 12 9 3 7 8 3 8 13 13 11 8 6 6 4 2 3 4 1 0 3 4 4 4 6 6 5 5 6 7 5 3 3 5 1 2 3 4 2 6 8 5 4 7 11 10 6 4 4 9 15 19 19 19 19 20 19
27 10 19 52 71 74 60 26 9 10 7 8 9 5 6 9 11 16 25 28 15 1 5 10 10 10 10 11 12 11 9 8 11 11 4 7 9 5 9 18 23 19 11 5 5 5 3 4 5 2 3 5 5 2 2 2 1 2 3 4 5 5 5 6 6 3 1 2 2 2 6 8 5 6 7 8 9 8 8 8 12 18 19 17 16 15 16 18
18 16 35 56 68 71 44 10 7 9 3 6 8 5 7 9 12 16 18 18 10 5 8 8 10 13 10 10 11 11 10 7 8 9 5 4 6 7 17 28 29 21 11 5 5 5 4 4 4 0 3 3 4 3 3 4 3 1 2 1 4 4 3 4 4 3 2 3 3 2 8 7 4 4 6 9 10 12 13 12 14 18 17 14 13 11 11 17
25 29 41 53 64 65 33 6 11 10 5 10 8 4 6 6 12 18 17 14 8 8 11 10 13 16 12 12 15 17 16 9 7 7 4 4 6 11 25 36 31 19 13 12 12 10 6 3 4 3 2 3 4 4 3 2 2 1 3 2 4 2 3 2 2 2 3 6 6 5 9 7 2 2 4 6 7 9 13 11 11 14 15 14 12 11 11 16
27 24 31 43 54 50 19 3 12 11 11 17 11 6 6 5 14 22 19 11 4 6 10 8 11 12 11 13 13 15 17 8 5 7 3 4 5 7 22 38 35 23 19 20 20 16 8 4 5 7 6 7 6 5 6 3 2 2 3 5 6 7 7 5 3 4 9 7 7 9 10 4 4 7 6 5 4 6 10 9 8 12 15 15 14 12 12 16
19 8 13 22 31 30 10 4 13 11 11 18 11 5 7 8 12 18 17 9 2 6 7 5 10 11 10 15 12 12 14 3 3 8 7 8 6 2 15 32 32 22 17 21 26 18 4 2 8 10 10 10 7 4 4 8 7 6 6 8 7 7 8 5 4 8 8 3 6 14 10 5 6 6 7 7 6 6 8 8 8 11 13 14 15 14 13 15
15 8 10 11 13 15 5 5 11 9 11 17 9 4 11 12 9 11 11 6 7 13 9 4 13 13 13 20 15 13 16 4 4 10 10 7 3 2 8 19 20 16 14 21 27 16 3 4 11 11 10 6 4 4 7 10 11 10 9 10 8 6 8 8 10 11 5 3 10 9 4 8 9 4 7 9 6 6 9 8 8 11 13 14 15 16 16 16
9 12 17 15 11 10 8 10 14 12 15 17 7 5 10 13 14 14 8 3 9 16 10 6 16 20 21 22 14 12 14 6 4 9 8 6 4 4 5 4 6 9 11 16 19 11 4 7 8 7 7 4 2 6 9 11 10 9 11 13 12 10 12 14 17 12 7 8 15 5 7 13 9 7 10 9 7 11 14 12 9 12 15 16 17 18 18 18
10 14 14 10 7 7 11 17 21 18 18 16 6 5 12 16 18 13 4 4 9 12 11 12 17 22 24 22 15 14 16 12 8 8 7 9 8 6 6 3 2 4 5 8 8 4 4 5 3 6 6 4 3 6 8 10 8 7 11 15 15 16 18 19 20 15 11 16 17 7 11 14 6 8 11 12 16 18 15 14 14 15 18 18 18 19 18 18
15 17 13 9 6 6 10 13 17 16 15 13 6 5 10 17 20 11 3 8 14 10 10 17 20 19 21 22 18 16 21 21 17 14 13 12 9 8 7 5 4 4 4 5 4 1 4 4 2 7 4 4 4 5 5 5 5 6 10 13 16 19 20 20 18 12 11 18 17 12 17 15 5 8 12 16 18 14 11 16 19 20 21 19 19 19 18 17
19 18 21 15 6 7 12 10 13 13 11 12 8 4 9 15 19 12 1 4 11 11 9 17 20 16 15 19 17 17 22 22 19 23 26 22 18 14 8 6 11 9 4 5 5 3 3 3 1 6 5 6 3 5 4 2 3 2 10 16 19 18 16 14 12 11 13 17 16 13 15 11 5 7 10 11 11 10 14 22 23 23 23 22 22 22 20 19
22 20 24 18 7 7 13 10 12 13 11 12 8 3 7 12 13 12 6 1 2 9 16 21 19 13 12 16 17 19 22 19 17 24 26 22 19 16 14 18 22 17 9 7 5 3 6 6 2 4 7 4 2 5 7 7 5 6 13 16 18 15 11 10 10 13 16 14 11 12 11 7 4 5 6 5 7 11 18 24 27 27 26 24 24 24 24 23
Wind_Direction
226 226 229 233 227 219 217 218 217 215 217 219 213 211 211 208 208 204 199 197 197 195 194 196 197 197 196 197 198 199 201 199 197 197 200 202 202 204 205 205 208 212 215 218 217 216 210 206 221 225 228 249 297 328 350 352 4 34 89 104 217 189 195 191 177 192 178 189 197 186 179 173 175 181 176 160 167 161 165 185 188 189 203 207 199 182 175 176
225 226 227 228 229 222 215 217 216 214 215 214 210 210 210 208 209 206 200 197 197 195 195 196 198 199 200 202 203 203 201 198 198 196 196 199 202 202 200 194 190 194 200 208 213 218 215 215 227 227 228 249 283 322 345 349 352 119 116 125 228 202 210 209 179 189 200 206 194 188 184 186 187 176 171 163 169 163 165 194 192 193 203 195 185 175 176 178
226 226 226 224 227 224 215 215 216 215 214 212 208 208 209 208 209 207 201 197 197 196 196 197 198 200 202 204 204 204 201 201 208 207 201 199 201 203 203 201 197 195 191 196 205 210 212 215 225 222 216 223 235 318 340 346 317 174 120 199 241 221 244 260 236 232 242 236 195 189 191 195 191 178 175 176 175 182 190 188 184 194 197 185 175 175 179 180
227 226 226 223 223 223 217 216 217 217 215 214 209 204 207 207 207 207 202 198 197 196 197 197 197 198 199 201 201 202 200 207 227 218 209 206 208 209 210 209 207 207 202 199 200 198 198 195 200 199 191 197 209 286 334 14 357 328 147 197 252 244 257 275 271 273 265 239 212 191 182 195 190 179 180 171 159 221 219 199 194 196 189 179 175 178 182 183
229 226 224 223 221 221 220 217 216 216 215 215 211 206 206 204 204 207 203 198 197 197 197 197 198 198 199 202 203 205 196 195 245 225 216 213 213 215 217 215 214 215 212 211 211 203 196 189 187 182 175 183 196 240 344 21 16 330 261 257 288 300 259 288 296 304 279 224 202 180 176 190 182 182 187 178 174 220 217 207 205 202 192 187 183 180 184 187
232 227 222 222 220 219 220 217 216 216 213 214 214 210 205 201 201 205 204 199 196 197 198 199 200 202 204 206 209 207 193 175 292 229 218 215 215 217 216 215 214 216 214 213 216 210 201 195 190 176 165 152 174 193 255 358 14 24 285 313 308 302 265 285 297 303 285 203 188 183 189 182 171 194 198 192 202 214 217 213 208 206 202 201 192 184 186 190
234 228 223 221 220 218 218 215 214 214 213 212 212 209 203 200 200 202 203 200 197 196 198 199 200 203 204 203 202 199 199 201 24 167 206 212 215 218 217 217 213 211 207 207 212 210 204 197 193 178 160 132 172 193 243 315 357 90 255 325 324 317 289 284 289 291 281 223 207 193 188 180 178 199 200 206 214 214 226 217 208 207 202 200 194 189 191 195
233 230 224 221 220 218 217 216 212 212 214 211 210 211 206 199 199 201 202 201 198 196 198 199 198 199 198 193 185 187 203 208 176 93 177 202 211 215 217 218 217 216 211 210 213 210 206 198 193 182 169 157 169 176 241 292 342 78 287 328 330 320 307 296 286 285 279 234 214 191 189 191 192 194 205 218 216 212 228 216 206 206 201 199 198 196 196 197
232 230 224 222 221 218 217 215 211 210 213 211 209 212 208 200 198 200 202 200 197 196 197 196 194 192 190 189 181 183 206 205 204 173 157 192 205 208 212 213 213 215 211 207 210 210 204 195 190 184 179 178 161 161 174 205 313 38 342 328 323 314 311 303 281 279 271 223 199 193 200 195 197 206 243 232 219 211 222 214 207 206 203 201 201 201 199 199
231 229 224 221 220 218 215 213 212 209 206 208 210 211 210 203 199 199 200 198 195 194 192 190 189 185 184 185 179 185 209 202 205 210 180 194 201 201 201 202 201 201 200 196 196 202 201 195 191 186 182 175 162 159 156 166 220 337 346 331 317 312 306 291 272 267 248 216 202 198 193 184 193 196 249 240 221 212 218 216 209 207 208 205 204 205 204 204
230 228 224 220 218 217 214 211 213 211 205 204 205 207 208 204 199 197 196 194 192 190 187 187 185 183 184 185 181 188 204 201 208 213 213 211 204 200 194 192 193 192 193 191 189 195 199 197 190 184 176 172 165 163 189 202 220 320 347 333 314 316 301 267 258 245 216 218 210 191 146 195 171 214 240 233 213 212 216 215 211 208 210 209 207 207 207 209
229 227 223 220 217 216 213 209 212 212 207 204 202 200 200 200 197 194 193 191 190 188 185 185 185 184 183 185 191 195 194 200 206 211 219 220 207 202 197 194 197 199 199 195 191 192 195 192 186 183 169 162 157 141 222 218 212 319 347 334 308 321 304 255 246 224 201 211 200 164 124 269 218 232 234 226 209 210 214 216 213 210 211 211 210 210 211 212
227 225 222 218 216 215 211 207 210 211 204 201 200 197 196 198 194 191 191 190 189 186 184 184 184 184 179 180 198 201 201 198 195 201 210 207 199 195 196 200 206 209 207 206 199 192 193 195 194 190 168 156 156 129 184 196 188 312 340 334 303 325 309 249 231 203 189 189 176 152 205 259 239 235 229 221 214 208 208 212 211 210 211 211 211 212 214 214
225 224 220 216 216 214 211 206 206 207 202 198 197 198 198 196 194 190 190 189 186 183 184 182 180 182 178 178 197 202 209 196 183 191 194 189 188 185 188 196 203 206 203 207 208 199 195 197 200 191 169 161 162 134 97 102 124 3 334 306 296 299 288 277 231 176 171 201 176 150 224 251 245 245 232 224 220 209 207 209 210 211 211 212 213 215 217 216
223 222 217 214 215 212 209 208 205 203 204 199 195 197 195 194 194 190 189 188 183 182 182 180 179 178 174 177 194 197 202 193 183 187 183 180 182 180 182 188 190 190 189 197 208 202 192 193 194 179 152 151 148 127 69 29 44 50 317 286 315 209 269 303 259 188 176 197 175 149 221 255 262 259 239 225 219 210 208 209 209 211 212 214 216 218 220 220
221 219 216 212 212 209 206 208 206 199 200 198 195 197 195 193 193 190 190 187 180 181 180 177 179 176 170 175 186 190 191 188 184 183 181 180 182 180 177 178 175 174 176 184 196 190 183 184 180 160 139 139 139 115 79 76 8 59 160 245 287 261 271 305 276 218 198 143 175 178 219 261 269 262 239 217 213 209 209 211 211 212 214 216 217 220 222 223
219 217 215 210 209 208 204 208 206 195 194 195 193 194 192 189 190 189 190 186 180 182 180 177 177 173 169 173 175 184 186 184 182 181 179 180 187 185 175 169 164 167 169 167 174 173 174 174 163 153 137 123 134 126 126 184 209 201 150 219 258 251 242 272 290 240 204 138 199 208 227 245 255 269 260 211 207 206 210 216 216 214 215 217 219 222 224 225
217 215 214 208 208 208 206 207 202 192 191 194 193 189 187 187 188 186 184 183 177 177 180 176 172 170 190 189 179 184 186 182 178 178 176 176 187 187 176 168 162 161 158 153 160 162 164 166 148 136 123 134 163 165 179 197 178 163 160 184 246 245 229 241 276 219 174 154 208 196 227 250 259 271 271 227 206 206 213 219 220 221 219 220 222 223 226 228
214 213 211 206 207 208 206 204 200 193 188 193 194 185 181 182 182 181 179 178 172 169 178 172 170 168 187 183 180 181 183 178 172 174 174 171 177 180 172 164 158 154 150 148 168 164 152 137 140 166 182 181 184 181 168 128 129 142 160 185 226 240 242 237 256 236 181 167 211 199 218 242 250 257 254 234 213 211 220 226 225 227 226 223 224 226 228 230
212 211 208 205 206 207 204 200 198 193 187 187 182 173 168 168 169 170 170 173 171 166 170 171 172 137 123 164 170 172 171 168 170 173 172 169 170 167 159 154 151 150 152 151 174 172 157 155 193 197 187 181 181 180 146 112 127 135 134 231 251 247 267 257 259 292 235 183 222 208 214 238 242 253 248 216 209 214 225 234 231 229 230 228 226 227 231 233
210 209 206 203 204 205 202 198 194 190 188 183 173 165 163 164 166 161 157 166 178 179 171 170 174 135 138 164 170 169 162 158 172 173 169 168 165 158 154 154 148 152 161 145 146 167 172 191 206 195 166 163 166 169 159 146 150 114 101 280 277 247 263 265 245 310 331 195 246 219 216 247 246 255 252 193 191 214 220 226 230 228 228 230 230 230 233 237
208 207 203 201 202 202 200 197 190 185 185 181 173 167 166 169 176 172 159 153 180 189 177 170 172 145 149 164 172 172 162 147 168 174 169 166 166 162 160 160 153 151 148 136 132 156 193 215 190 146 137 143 153 165 168 185 193 135 116 288 282 250 275 279 255 287 21 188 269 241 211 253 254 255 251 201 208 231 227 225 229 229 227 229 232 234 236 238
205 203 200 199 199 199 198 196 190 182 180 179 178 175 166 167 173 168 157 135 154 172 168 167 158 137 145 155 165 170 162 149 166 175 172 169 169 169 164 159 152 142 146 157 158 165 199 218 158 141 143 145 155 168 166 191 214 177 169 225 259 260 275 280 296 328 342 161 249 169 214 262 266 265 262 225 224 240 243 237 236 237 235 234 234 236 239 240
201 199 198 197 197 197 196 194 190 185 182 180 182 184 174 165 167 164 148 105 104 122 159 165 147 145 149 153 162 166 160 155 167 173 175 171 167 167 164 158 147 147 170 175 171 176 210 177 152 145 152 157 160 173 175 190 209 206 204 205 236 258 241 249 309 334 324 345 115 98 320 284 257 259 269 240 225 238 247 245 243 243 241 242 241 241 243 243
198 196 196 195 194 195 193 191 188 187 186 181 180 185 185 176 168 165 148 79 62 123 160 166 152 154 154 153 163 164 151 147 164 173 175 173 166 158 160 162 157 166 181 169 163 187 236 169 155 144 160 169 166 183 189 184 188 218 216 206 223 252 268 273 304 346 329 302 257 152 271 276 282 264 256 247 223 235 243 240 241 242 241 243 244 244 244 245
195 194 194 193 192 190 188 187 187 187 185 182 179 181 186 183 168 162 148 72 161 152 166 168 160 162 155 150 157 154 144 142 167 172 174 175 171 158 153 165 162 171 173 160 151 192 212 170 160 156 167 171 180 197 196 179 179 224 201 183 214 257 293 282 278 229 245 271 273 199 207 259 308 272 244 250 250 247 244 239 242 244 242 242 243 245 244 244
191 191 191 190 189 187 184 183 186 184 182 183 180 178 182 180 171 163 145 43 188 160 161 163 161 168 158 149 153 150 147 151 157 173 176 176 175 166 164 170 145 159 160 143 182 213 149 160 176 176 167 175 196 200 191 175 174 217 157 158 194 250 288 275 242 214 236 271 292 292 187 249 278 253 256 288 272 269 263 254 253 248 244 243 243 245 246 247
186 187 187 187 186 186 183 181 181 181 184 185 179 176 175 172 170 169 162 217 166 135 146 151 150 159 151 148 153 140 135 148 149 180 180 176 178 174 182 186 155 155 162 154 192 205 148 165 184 176 175 197 198 179 168 170 185 230 174 155 166 152 224 287 233 237 278 321 271 266 167 228 262 268 308 356 248 263 265 253 251 248 245 244 244 245 246 248
183 184 184 184 185 186 185 184 177 176 182 180 173 171 167 164 165 164 237 215 145 123 151 143 137 148 144 147 152 121 135 150 153 177 176 177 182 180 188 187 158 144 174 184 191 191 173 186 183 170 183 203 178 156 166 175 200 215 149 106 78 85 77 56 204 240 320 259 244 237 196 221 261 275 295 324 242 245 259 256 247 248 247 246 246 247 248 248
180 181 182 182 183 183 184 185 177 172 171 169 166 163 157 156 159 163 218 197 121 129 148 145 152 152 146 146 146 127 140 143 126 154 170 185 187 179 159 169 153 129 181 234 219 230 329 185 179 172 196 192 166 175 179 179 183 152 113 105 83 56 45 43 67 105 273 251 245 234 212 213 259 271 228 219 225 213 233 253 252 252 253 252 251 251 252 251
179 179 179 180 180 180 180 177 175 171 162 159 158 153 149 146 148 177 187 161 113 138 141 141 156 153 150 151 151 151 144 114 125 143 167 200 189 172 147 159 152 116 164 228 236 294 14 131 176 187 195 179 155 177 185 182 180 160 120 132 129 153 11 6 352 63 224 246 257 238 196 186 233 260 228 235 250 222 220 238 250 256 262 268 267 264 263 260
178 177 178 180 179 180 179 175 174 169 156 154 154 148 143 133 199 190 167 152 153 165 154 151 159 161 159 157 153 153 139 127 148 154 169 184 185 185 172 177 166 135 179 199 198 304 326 196 233 184 189 181 159 165 181 180 182 181 170 147 148 176 135 233 240 229 230 249 290 241 175 207 233 252 256 262 268 251 232 231 243 256 268 280 284 287 286 276
178 176 177 181 181 179 179 176 173 165 155 154 152 144 140 170 179 162 142 162 173 168 163 157 160 162 157 153 150 148 140 145 165 168 175 172 167 202 221 209 168 145 164 173 153 173 223 280 254 155 188 191 175 168 177 180 183 187 182 164 166 158 166 206 217 258 253 259 284 242 246 262 270 263 242 244 252 253 248 244 253 263 272 280 284 286 291 285
177 176 176 180 181 180 177 171 166 162 156 154 149 141 165 175 158 129 151 174 154 146 154 146 145 148 149 148 150 150 138 140 165 165 170 171 172 198 218 211 186 145 111 153 171 179 187 240 212 177 179 183 181 183 169 149 172 193 169 144 177 175 172 195 199 221 245 271 275 258 230 212 209 260 240 240 261 269 270 265 264 267 273 280 280 276 278 284
177 177 176 178 179 180 177 168 163 161 157 152 144 152 176 163 134 153 165 166 140 136 140 139 139 143 149 147 151 162 148 137 163 162 169 182 188 192 194 199 193 153 133 168 195 177 182 234 250 278 150 166 176 185 156 137 168 197 146 151 201 191 161 164 194 189 192 285 271 236 232 214 209 281 280 273 281 277 271 269 266 266 272 277 272 265 263 272
176 176 177 178 176 177 174 167 163 162 157 150 143 178 177 167 165 168 168 165 159 148 141 143 146 146 149 140 155 174 175 145 158 162 179 189 197 198 193 189 185 172 159 163 161 161 172 246 309 7 29 157 170 173 162 164 175 157 161 195 210 164 154 184 257 36 63 259 262 210 255 292 317 292 299 318 301 282 273 270 265 266 274 274 266 258 250 256
175 171 174 179 175 171 169 166 164 163 157 151 165 176 173 191 168 157 159 160 156 150 146 149 161 159 157 154 169 178 168 146 161 170 176 183 203 201 197 195 182 181 175 154 157 201 155 175 317 82 115 279 142 135 131 75 142 153 191 192 129 90 139 145 241 294 241 243 270 358 249 288 306 278 315 339 305 280 276 275 269 270 271 269 268 261 247 245
174 162 166 175 172 166 164 164 164 162 156 153 174 168 153 175 161 144 151 152 151 155 157 160 166 167 166 165 172 175 166 159 173 178 171 178 213 197 187 195 183 182 182 156 153 218 138 126 312 34 160 281 12 117 141 1 50 157 183 168 143 176 197 154 194 214 215 237 274 314 287 269 215 229 299 307 282 267 271 279 282 269 257 256 265 265 250 240
168 151 154 166 166 163 161 162 161 157 152 164 174 170 165 167 162 157 157 157 158 162 169 169 164 167 169 164 162 168 170 168 170 173 175 184 224 200 182 184 176 180 182 166 161 208 134 130 272 298 253 295 14 153 183 212 9 47 108 162 166 185 192 185 177 182 198 230 266 305 311 271 225 210 228 253 260 260 263 273 277 268 262 261 264 265 255 243
163 151 143 159 161 160 159 158 155 152 155 172 166 169 178 151 147 164 163 163 165 172 177 169 161 158 160 158 155 161 166 159 165 174 188 181 196 218 186 177 162 171 175 166 166 179 135 132 191 291 329 146 191 210 187 178 165 119 144 175 193 178 153 202 203 162 158 195 219 282 287 261 243 211 197 221 243 248 249 260 265 271 276 275 269 265 258 248
157 152 154 159 159 158 156 154 151 155 166 164 155 153 160 139 141 164 168 169 170 198 175 164 159 154 152 153 157 162 154 145 168 177 182 180 178 210 197 171 151 151 155 156 171 173 141 134 147 158 248 197 228 248 196 181 179 173 178 186 186 176 150 200 229 216 95 201 192 212 269 262 245 217 207 222 240 251 268 268 269 279 283 283 279 270 258 248
153 145 161 161 159 156 153 148 155 166 162 158 153 139 138 140 150 165 172 172 172 146 142 152 149 142 148 154 151 157 152 145 174 179 169 185 177 168 177 159 151 157 159 153 179 174 122 110 124 161 211 214 243 271 125 156 146 145 199 193 170 171 165 184 222 232 203 238 146 117 273 265 224 203 213 230 248 267 279 270 270 285 294 296 293 281 258 245
144 134 155 160 158 155 150 138 161 160 158 158 143 119 132 142 157 166 172 176 177 162 153 154 153 152 158 158 147 154 157 148 181 181 142 155 177 167 164 157 154 161 161 153 174 166 132 108 114 34 309 299 305 347 43 39 51 148 254 141 144 195 179 165 190 176 191 227 158 185 268 261 208 192 213 237 260 273 276 271 270 285 305 311 303 293 258 239
129 129 148 160 160 157 152 151 165 158 151 156 145 123 131 140 165 170 173 181 184 165 161 165 165 162 161 160 159 166 168 164 190 190 140 147 187 176 165 162 161 167 179 185 178 168 174 157 119 111 15 350 331 322 299 337 60 186 224 164 176 188 100 114 140 107 236 217 167 201 251 250 258 289 249 249 275 283 278 276 273 284 305 315 310 299 261 237
129 130 145 158 163 161 154 137 164 158 153 160 161 151 133 145 181 180 174 174 187 155 154 158 156 146 142 151 157 168 171 165 169 177 147 143 173 181 172 171 171 179 191 185 167 161 176 182 150 154 172 191 203 224 224 194 124 198 202 189 202 185 171 184 162 198 236 210 166 217 243 261 322 324 319 296 298 293 285 288 282 282 297 309 313 305 271 243
133 130 137 150 162 165 151 102 154 154 154 161 160 154 155 157 184 189 176 168 178 137 122 117 130 118 130 148 146 169 177 137 82 163 166 159 161 224 186 181 180 182 182 168 158 153 151 188 187 194 198 193 193 203 162 131 149 202 195 186 201 195 189 187 180 214 223 161 204 235 246 281 298 312 317 298 281 276 278 280 284 293 304 309 310 307 285 255
138 145 143 139 155 166 136 95 153 159 160 164 156 153 171 163 166 189 191 196 172 145 118 117 145 140 157 160 152 172 176 125 80 156 160 157 137 43 171 182 185 176 162 161 160 151 113 203 199 206 213 199 167 171 150 146 177 194 176 184 199 186 179 190 215 219 158 147 241 233 200 246 251 249 269 275 283 286 278 275 289 308 314 311 302 294 283 263
133 150 156 150 151 170 166 158 166 163 161 165 150 127 164 168 169 179 198 218 170 154 136 151 168 165 166 164 155 161 166 148 130 157 152 149 135 87 115 159 190 172 154 163 167 154 153 202 194 186 208 220 165 173 165 165 185 182 174 192 197 188 192 205 224 222 157 215 245 200 173 228 223 204 238 251 256 268 277 288 302 307 305 303 293 280 270 262
115 135 148 142 142 159 155 158 161 159 163 165 152 148 166 176 179 179 172 152 170 175 161 163 178 173 165 163 156 156 169 173 171 171 158 149 147 133 125 123 208 192 147 153 172 167 169 195 172 150 187 237 205 194 185 172 174 178 191 201 196 197 205 211 222 221 205 235 250 235 238 248 210 192 228 236 244 258 280 295 295 291 288 288 283 271 261 257
137 149 151 125 108 118 113 136 153 155 164 166 163 177 175 179 180 178 177 166 170 186 176 164 170 170 164 166 163 170 182 178 169 168 155 144 154 165 162 164 170 165 139 146 170 211 181 202 151 124 155 247 211 191 202 182 170 184 206 214 209 208 213 216 222 219 219 243 251 250 261 265 220 200 224 234 246 265 288 282 277 277 279 280 277 271 264 260
143 153 155 137 102 124 127 137 155 155 168 177 178 183 179 186 182 167 167 205 173 176 171 156 158 158 162 172 175 182 186 178 168 168 164 160 167 170 166 163 154 147 146 160 161 147 157 188 69 107 163 237 220 147 157 81 46 247 234 226 215 212 214 218 219 209 214 235 243 245 257 257 213 206 223 234 249 258 261 264 265 267 269 269 270 272 271 266
137 133 143 134 87 128 142 143 160 166 179 180 171 167 177 188 186 165 152 286 177 162 154 146 146 149 162 183 191 187 181 173 162 163 163 158 154 146 138 148 155 155 156 160 154 148 151 150 130 146 177 239 328 122 126 79 43 272 248 222 208 209 210 214 227 223 220 226 231 238 245 231 180 181 200 222 233 235 247 255 259 261 262 262 265 270 274 274